Data No.,UTC Date,UTC Time,Latitude,Longitude,Course(deg),Temp(degC),Sal(psu)
4090,2012/11/6,3:39:00,25-07.0400N,119-59.9300E,228,23.716,31.6294
4091,2012/11/6,3:40:00,25-06.9100N,119-59.7700E,227,23.72,31.6501
4092,2012/11/6,3:41:00,25-06.7800N,119-59.6100E,228,23.724,31.666
4093,2012/11/6,3:42:00,25-06.6500N,119-59.4500E,230,23.731,31.6769
4094,2012/11/6,3:43:00,25-06.5200N,119-59.2800E,228,23.741,31.6888
4095,2012/11/6,3:44:00,25-06.3900N,119-59.1200E,229,23.748,31.7022
4096,2012/11/6,3:45:00,25-06.2700N,119-58.9600E,228,23.755,31.72
4097,2012/11/6,3:46:00,25-06.1500N,119-58.7900E,230,23.763,31.7369
4098,2012/11/6,3:47:00,25-06.0200N,119-58.6300E,230,23.776,31.7533
4099,2012/11/6,3:48:00,25-05.8900N,119-58.4600E,229,23.787,31.7722
4100,2012/11/6,3:49:00,25-05.7600N,119-58.3000E,228,23.808,31.7981
4101,2012/11/6,3:50:00,25-05.6300N,119-58.1300E,230,23.827,31.8229
4102,2012/11/6,3:51:00,25-05.5000N,119-57.9700E,229,23.845,31.8572
4103,2012/11/6,3:52:00,25-05.3800N,119-57.8000E,229,23.857,31.8921
4104,2012/11/6,3:53:00,25-05.2500N,119-57.6300E,228,23.86,31.9219
4105,2012/11/6,3:54:00,25-05.1200N,119-57.4700E,231,23.863,31.9417
4106,2012/11/6,3:55:00,25-04.9900N,119-57.3000E,229,23.862,31.9539
4107,2012/11/6,3:56:00,25-04.8700N,119-57.1300E,229,23.867,31.9621
4108,2012/11/6,3:57:00,25-04.7400N,119-56.9700E,229,23.873,31.969
4109,2012/11/6,3:58:00,25-04.6100N,119-56.8000E,230,23.878,31.9767
4110,2012/11/6,3:59:00,25-04.4900N,119-56.6300E,231,23.882,31.9907
4111,2012/11/6,4:00:00,25-04.3700N,119-56.4600E,231,23.885,32.0048
4112,2012/11/6,4:01:00,25-04.2400N,119-56.2900E,231,23.888,32.0212
4113,2012/11/6,4:02:00,25-04.1200N,119-56.1200E,231,23.89,32.0313
4114,2012/11/6,4:03:00,25-03.9900N,119-55.9600E,229,23.893,32.0379
4115,2012/11/6,4:04:00,25-03.8600N,119-55.7900E,230,23.896,32.0477
4116,2012/11/6,4:05:00,25-03.7400N,119-55.6200E,230,23.899,32.0584
4117,2012/11/6,4:06:00,25-03.6100N,119-55.4500E,229,23.907,32.0713
4118,2012/11/6,4:07:00,25-03.4800N,119-55.2900E,229,23.913,32.0875
4119,2012/11/6,4:08:00,25-03.3500N,119-55.1300E,226,23.919,32.1043
4120,2012/11/6,4:09:00,25-03.2200N,119-54.9700E,228,23.928,32.1206
4121,2012/11/6,4:10:00,25-03.1000N,119-54.7900E,235,23.938,32.138
4122,2012/11/6,4:11:00,25-03.0000N,119-54.6100E,236,23.952,32.1592
4123,2012/11/6,4:12:00,25-02.8800N,119-54.4400E,232,23.964,32.1823
4124,2012/11/6,4:13:00,25-02.7700N,119-54.2700E,234,23.978,32.2123
4125,2012/11/6,4:14:00,25-02.6600N,119-54.1000E,232,23.992,32.2425
4126,2012/11/6,4:15:00,25-02.5400N,119-53.9200E,235,24.002,32.2738
4127,2012/11/6,4:16:00,25-02.4100N,119-53.7600E,226,24.021,32.314
4128,2012/11/6,4:17:00,25-02.2800N,119-53.6000E,226,24.002,32.3393
4129,2012/11/6,4:18:00,25-02.1400N,119-53.4400E,227,23.954,32.3584
4130,2012/11/6,4:19:00,25-02.0000N,119-53.2800E,225,23.929,32.2785
4131,2012/11/6,4:20:00,25-01.8600N,119-53.1200E,226,23.912,32.069
4132,2012/11/6,4:21:00,25-01.7200N,119-52.9600E,225,23.892,31.8822
4133,2012/11/6,4:22:00,25-01.5700N,119-52.7900E,224,23.866,31.7619
4134,2012/11/6,4:23:00,25-01.4200N,119-52.6300E,223,23.845,31.6631
4135,2012/11/6,4:24:00,25-01.2600N,119-52.4600E,222,23.832,31.5773
4136,2012/11/6,4:25:00,25-01.1100N,119-52.3100E,220,23.827,31.521
4137,2012/11/6,4:26:00,25-00.9500N,119-52.1500E,223,23.826,31.4905
4138,2012/11/6,4:27:00,25-00.8000N,119-51.9900E,223,23.83,31.4801
4139,2012/11/6,4:28:00,25-00.6400N,119-51.8300E,222,23.836,31.4775
4140,2012/11/6,4:29:00,25-00.5000N,119-51.6700E,228,23.828,31.4707
4141,2012/11/6,4:30:00,25-00.3500N,119-51.4900E,228,23.816,31.4618
4142,2012/11/6,4:31:00,25-00.2200N,119-51.3200E,228,23.811,31.4326
4143,2012/11/6,4:32:00,25-00.0800N,119-51.1500E,228,23.809,31.3959
4144,2012/11/6,4:33:00,24-59.9400N,119-50.9800E,228,23.808,31.3733
4145,2012/11/6,4:34:00,24-59.8000N,119-50.8000E,230,23.81,31.3626
4146,2012/11/6,4:35:00,24-59.6700N,119-50.6200E,234,23.803,31.3549
4147,2012/11/6,4:36:00,24-59.5600N,119-50.4200E,234,23.798,31.3493
4148,2012/11/6,4:37:00,24-59.4400N,119-50.2300E,235,23.781,31.3377
4149,2012/11/6,4:38:00,24-59.3000N,119-50.0400E,233,23.749,31.3211
4150,2012/11/6,4:39:00,24-59.1800N,119-49.8800E,234,23.721,31.2853
4151,2012/11/6,4:40:00,24-59.0600N,119-49.7000E,232,23.695,31.2231
4152,2012/11/6,4:41:00,24-58.9300N,119-49.5100E,231,23.674,31.1553
4153,2012/11/6,4:42:00,24-58.8100N,119-49.3200E,234,23.661,31.0908
4154,2012/11/6,4:43:00,24-58.6600N,119-49.1100E,234,23.645,31.0335
4155,2012/11/6,4:44:00,24-58.5600N,119-48.9300E,233,23.633,30.9869
4156,2012/11/6,4:45:00,24-58.4400N,119-48.7500E,233,23.628,30.9458
4157,2012/11/6,4:46:00,24-58.3100N,119-48.5700E,233,23.637,30.9132
4158,2012/11/6,4:47:00,24-58.1700N,119-48.3600E,235,23.662,30.9043
4159,2012/11/6,4:48:00,24-58.0600N,119-48.1700E,237,23.677,30.9275
4160,2012/11/6,4:49:00,24-57.9400N,119-47.9700E,236,23.684,30.9853
4161,2012/11/6,4:50:00,24-57.8400N,119-47.7700E,239,23.69,31.0314
4162,2012/11/6,4:51:00,24-57.7200N,119-47.5700E,235,23.685,31.0601
4163,2012/11/6,4:52:00,24-57.6000N,119-47.3900E,233,23.677,31.0799
4164,2012/11/6,4:53:00,24-57.4900N,119-47.2300E,233,23.662,31.0879
4165,2012/11/6,4:54:00,24-57.3600N,119-47.0500E,234,23.652,31.0801
4166,2012/11/6,4:55:00,24-57.2400N,119-46.8600E,235,23.65,31.0592
4167,2012/11/6,4:56:00,24-57.1200N,119-46.6700E,233,23.655,31.0363
4168,2012/11/6,4:57:00,24-56.9900N,119-46.4800E,233,23.661,31.027
4169,2012/11/6,4:58:00,24-56.8600N,119-46.2900E,232,23.663,31.0366
4170,2012/11/6,4:59:00,24-56.7400N,119-46.1000E,234,23.659,31.0565
4171,2012/11/6,5:00:00,24-56.6200N,119-45.9100E,233,23.654,31.0667
4172,2012/11/6,5:01:00,24-56.5000N,119-45.7200E,233,23.642,31.0591
4173,2012/11/6,5:02:00,24-56.3700N,119-45.5300E,233,23.633,31.0543
4174,2012/11/6,5:03:00,24-56.2400N,119-45.3400E,233,23.627,31.0358
4175,2012/11/6,5:04:00,24-56.1200N,119-45.1500E,234,23.621,31.0049
4176,2012/11/6,5:05:00,24-55.9900N,119-44.9500E,234,23.612,30.9807
4177,2012/11/6,5:06:00,24-55.8600N,119-44.7600E,231,23.606,30.9715
4178,2012/11/6,5:07:00,24-55.7300N,119-44.5700E,232,23.605,30.961
4179,2012/11/6,5:08:00,24-55.6000N,119-44.3900E,232,23.604,30.9488
4180,2012/11/6,5:09:00,24-55.4600N,119-44.2000E,232,23.597,30.9456
4181,2012/11/6,5:10:00,24-55.3300N,119-44.0000E,232,23.59,30.9559
4182,2012/11/6,5:11:00,24-55.2000N,119-43.8200E,232,23.586,30.9652
4183,2012/11/6,5:12:00,24-55.0700N,119-43.6400E,231,23.588,30.9667
4184,2012/11/6,5:13:00,24-54.9400N,119-43.4500E,233,23.592,30.9737
4185,2012/11/6,5:14:00,24-54.8100N,119-43.2600E,232,23.596,30.9852
4186,2012/11/6,5:15:00,24-54.6800N,119-43.0600E,234,23.599,30.9915
4187,2012/11/6,5:16:00,24-54.5500N,119-42.8700E,233,23.605,31.0003
4188,2012/11/6,5:17:00,24-54.4100N,119-42.6700E,233,23.606,31.0127
4189,2012/11/6,5:18:00,24-54.2800N,119-42.4800E,233,23.605,31.0169
4190,2012/11/6,5:19:00,24-54.1500N,119-42.2800E,233,23.606,31.0108
4191,2012/11/6,5:20:00,24-54.0100N,119-42.0900E,232,23.608,31.0042
4192,2012/11/6,5:21:00,24-53.8800N,119-41.9000E,233,23.605,30.9989
4193,2012/11/6,5:22:00,24-53.7500N,119-41.7000E,233,23.597,31.0015
4194,2012/11/6,5:23:00,24-53.6200N,119-41.5000E,233,23.586,31.0043
4195,2012/11/6,5:24:00,24-53.4800N,119-41.3000E,233,23.577,31.0039
4196,2012/11/6,5:25:00,24-53.3500N,119-41.1100E,233,23.568,30.995
4197,2012/11/6,5:26:00,24-53.2100N,119-40.9200E,233,23.562,30.9786
4198,2012/11/6,5:27:00,24-53.0800N,119-40.7200E,234,23.557,30.9578
4199,2012/11/6,5:28:00,24-52.9500N,119-40.5200E,232,23.555,30.943
4200,2012/11/6,5:29:00,24-52.8100N,119-40.3300E,231,23.555,30.9357
4201,2012/11/6,5:30:00,24-52.6600N,119-40.1300E,230,23.554,30.9305
4202,2012/11/6,5:31:00,24-52.5200N,119-39.9300E,231,23.552,30.929
4203,2012/11/6,5:32:00,24-52.3700N,119-39.7400E,230,23.55,30.9293
4204,2012/11/6,5:33:00,24-52.2200N,119-39.5500E,230,23.548,30.9341
4205,2012/11/6,5:34:00,24-52.0700N,119-39.3500E,230,23.548,30.9417
4206,2012/11/6,5:35:00,24-51.9200N,119-39.1500E,230,23.548,30.9442
4207,2012/11/6,5:36:00,24-51.7800N,119-38.9500E,230,23.55,30.9439
4208,2012/11/6,5:37:00,24-51.6300N,119-38.7500E,230,23.556,30.9484
4209,2012/11/6,5:38:00,24-51.4700N,119-38.5500E,229,23.568,30.9606
4210,2012/11/6,5:39:00,24-51.3200N,119-38.3600E,229,23.583,30.9751
4211,2012/11/6,5:40:00,24-51.1800N,119-38.1700E,229,23.599,30.9978
4212,2012/11/6,5:41:00,24-51.0300N,119-37.9700E,230,23.618,31.0384
4213,2012/11/6,5:42:00,24-50.8800N,119-37.7800E,229,23.651,31.1003
4214,2012/11/6,5:43:00,24-50.7200N,119-37.5600E,230,23.668,31.1694
4215,2012/11/6,5:44:00,24-50.5600N,119-37.3700E,228,23.669,31.2597
4216,2012/11/6,5:45:00,24-50.4100N,119-37.1800E,229,23.657,31.3266
4217,2012/11/6,5:46:00,24-50.2800N,119-37.0100E,230,23.632,31.3405
4218,2012/11/6,5:47:00,24-50.1300N,119-36.8300E,228,23.609,31.3276
4219,2012/11/6,5:48:00,24-49.9800N,119-36.6400E,229,23.601,31.2731
4220,2012/11/6,5:49:00,24-49.8400N,119-36.4400E,231,23.598,31.2058
4221,2012/11/6,5:50:00,24-49.6900N,119-36.2500E,231,23.606,31.1628
4222,2012/11/6,5:51:00,24-49.5500N,119-36.0500E,230,23.619,31.1638
4223,2012/11/6,5:52:00,24-49.4100N,119-35.8600E,231,23.65,31.1944
4224,2012/11/6,5:53:00,24-49.2700N,119-35.6700E,232,23.686,31.2316
4225,2012/11/6,5:54:00,24-49.1400N,119-35.4700E,233,23.705,31.2869
4226,2012/11/6,5:55:00,24-49.0100N,119-35.2800E,232,23.717,31.3477
4227,2012/11/6,5:56:00,24-48.8700N,119-35.0900E,232,23.726,31.3823
4228,2012/11/6,5:57:00,24-48.7400N,119-34.9000E,233,23.732,31.4042
4229,2012/11/6,5:58:00,24-48.6100N,119-34.7100E,232,23.734,31.4266
4230,2012/11/6,5:59:00,24-48.4800N,119-34.5200E,233,23.739,31.4381
4231,2012/11/6,6:00:00,24-48.3300N,119-34.3000E,231,23.744,31.4448
4232,2012/11/6,6:01:00,24-48.2000N,119-34.1100E,231,23.75,31.4545
4233,2012/11/6,6:02:00,24-48.0600N,119-33.9300E,230,23.756,31.4691
4234,2012/11/6,6:03:00,24-47.9200N,119-33.7400E,231,23.764,31.4833
4235,2012/11/6,6:04:00,24-47.8100N,119-33.5800E,230,23.778,31.4948
4236,2012/11/6,6:05:00,24-47.6500N,119-33.3700E,230,23.786,31.5074
4237,2012/11/6,6:06:00,24-47.5100N,119-33.1800E,230,23.788,31.5317
4238,2012/11/6,6:07:00,24-47.3800N,119-33.0100E,230,23.785,31.5518
4239,2012/11/6,6:08:00,24-47.2400N,119-32.8200E,230,23.79,31.5611
4240,2012/11/6,6:09:00,24-47.1000N,119-32.6300E,229,23.802,31.5581
4241,2012/11/6,6:10:00,24-46.9400N,119-32.4200E,231,23.802,31.5551
4242,2012/11/6,6:11:00,24-46.8000N,119-32.2200E,232,23.798,31.5633
4243,2012/11/6,6:12:00,24-46.6700N,119-32.0400E,231,23.806,31.5637
4244,2012/11/6,6:13:00,24-46.5300N,119-31.8500E,231,23.816,31.5613
4245,2012/11/6,6:14:00,24-46.4000N,119-31.6700E,231,23.819,31.5722
4246,2012/11/6,6:15:00,24-46.2700N,119-31.4800E,231,23.815,31.5907
4247,2012/11/6,6:16:00,24-46.1400N,119-31.3000E,232,23.806,31.6051
4248,2012/11/6,6:17:00,24-46.0300N,119-31.1400E,232,23.8,31.6039
4249,2012/11/6,6:18:00,24-45.8800N,119-30.9300E,231,23.797,31.5926
4250,2012/11/6,6:19:00,24-45.7400N,119-30.7400E,230,23.797,31.5813
4251,2012/11/6,6:20:00,24-45.6100N,119-30.5600E,230,23.801,31.5752
4252,2012/11/6,6:21:00,24-45.4700N,119-30.3700E,230,23.804,31.5694
4253,2012/11/6,6:22:00,24-45.3400N,119-30.1800E,232,23.804,31.5707
4254,2012/11/6,6:23:00,24-45.2100N,119-30.0000E,231,23.802,31.5706
4255,2012/11/6,6:24:00,24-45.1000N,119-29.8400E,231,23.809,31.5691
4256,2012/11/6,6:25:00,24-44.9700N,119-29.6600E,232,23.815,31.568
4257,2012/11/6,6:26:00,24-44.8300N,119-29.4800E,231,23.824,31.5754
4258,2012/11/6,6:27:00,24-44.7000N,119-29.2900E,232,23.833,31.5834
4259,2012/11/6,6:28:00,24-44.5600N,119-29.1000E,231,23.837,31.5966
4260,2012/11/6,6:29:00,24-44.4300N,119-28.9100E,231,23.838,31.6099
4261,2012/11/6,6:30:00,24-44.2900N,119-28.7200E,232,23.846,31.6181
4262,2012/11/6,6:31:00,24-44.1500N,119-28.5100E,232,23.852,31.6244
4263,2012/11/6,6:32:00,24-44.0300N,119-28.3400E,232,23.859,31.6341
4264,2012/11/6,6:33:00,24-43.9000N,119-28.1500E,231,23.864,31.6516
4265,2012/11/6,6:34:00,24-43.7600N,119-27.9600E,231,23.872,31.6686
4266,2012/11/6,6:35:00,24-43.6300N,119-27.7700E,232,23.88,31.6838
4267,2012/11/6,6:36:00,24-43.4900N,119-27.5700E,233,23.888,31.7053
4268,2012/11/6,6:37:00,24-43.3600N,119-27.3800E,232,23.897,31.7272
4269,2012/11/6,6:38:00,24-43.2200N,119-27.1900E,232,23.904,31.7472
4270,2012/11/6,6:39:00,24-43.0900N,119-26.9900E,232,23.91,31.7709
4271,2012/11/6,6:40:00,24-42.9500N,119-26.8000E,232,23.913,31.7941
4272,2012/11/6,6:41:00,24-42.8200N,119-26.6000E,232,23.912,31.8095
4273,2012/11/6,6:42:00,24-42.6800N,119-26.4100E,232,23.919,31.8211
4274,2012/11/6,6:43:00,24-42.5500N,119-26.2100E,231,23.928,31.8274
4275,2012/11/6,6:44:00,24-42.4100N,119-26.0100E,232,23.938,31.8427
4276,2012/11/6,6:45:00,24-42.2700N,119-25.8200E,232,23.945,31.8601
4277,2012/11/6,6:46:00,24-42.1300N,119-25.6200E,233,23.948,31.8825
4278,2012/11/6,6:47:00,24-42.0000N,119-25.4300E,232,23.954,31.9023
4279,2012/11/6,6:48:00,24-41.8400N,119-25.2100E,231,23.956,31.9159
4280,2012/11/6,6:49:00,24-41.7000N,119-25.0100E,232,23.962,31.9311
4281,2012/11/6,6:50:00,24-41.5800N,119-24.8400E,231,23.968,31.9461
4282,2012/11/6,6:51:00,24-41.4500N,119-24.6500E,231,23.973,31.9618
4283,2012/11/6,6:52:00,24-41.3100N,119-24.4500E,231,23.979,31.9755
4284,2012/11/6,6:53:00,24-41.1700N,119-24.2600E,232,23.986,31.9907
4285,2012/11/6,6:54:00,24-41.0300N,119-24.0700E,231,23.996,32.0058
4286,2012/11/6,6:55:00,24-40.9000N,119-23.8700E,233,24.01,32.0199
4287,2012/11/6,6:56:00,24-40.7600N,119-23.6800E,232,24.022,32.042
4288,2012/11/6,6:57:00,24-40.6300N,119-23.4900E,232,24.033,32.0716
4289,2012/11/6,6:58:00,24-40.4900N,119-23.3100E,231,24.044,32.0934
4290,2012/11/6,6:59:00,24-40.3600N,119-23.1200E,232,24.048,32.113
4291,2012/11/6,7:00:00,24-40.2300N,119-22.9400E,231,24.045,32.1333
4292,2012/11/6,7:01:00,24-40.0900N,119-22.7500E,231,24.033,32.1431
4293,2012/11/6,7:02:00,24-39.9500N,119-22.5600E,230,24.02,32.1395
4294,2012/11/6,7:03:00,24-39.8200N,119-22.3700E,229,24.01,32.1204
4295,2012/11/6,7:04:00,24-39.6700N,119-22.1900E,228,23.996,32.094
4296,2012/11/6,7:05:00,24-39.5300N,119-22.0100E,229,23.984,32.0613
4297,2012/11/6,7:06:00,24-39.3900N,119-21.8300E,229,23.968,32.0269
4298,2012/11/6,7:07:00,24-39.2400N,119-21.6500E,229,23.951,31.9927
4299,2012/11/6,7:08:00,24-39.1100N,119-21.4700E,229,23.936,31.9617
4300,2012/11/6,7:09:00,24-38.9600N,119-21.2900E,229,23.926,31.9366
4301,2012/11/6,7:10:00,24-38.8300N,119-21.1100E,229,23.913,31.9185
4302,2012/11/6,7:11:00,24-38.6800N,119-20.9400E,228,23.904,31.9049
4303,2012/11/6,7:12:00,24-38.5200N,119-20.7300E,229,23.901,31.8937
4304,2012/11/6,7:13:00,24-38.4100N,119-20.5800E,229,23.905,31.8844
4305,2012/11/6,7:14:00,24-38.2700N,119-20.4000E,229,23.911,31.8803
4306,2012/11/6,7:15:00,24-38.1200N,119-20.2300E,230,23.92,31.8835
4307,2012/11/6,7:16:00,24-37.9900N,119-20.0500E,229,23.929,31.8849
4308,2012/11/6,7:17:00,24-37.8400N,119-19.8500E,230,23.935,31.8829
4309,2012/11/6,7:18:00,24-37.7200N,119-19.7000E,230,23.936,31.8858
4310,2012/11/6,7:19:00,24-37.5800N,119-19.5200E,229,23.939,31.8855
4311,2012/11/6,7:20:00,24-37.4400N,119-19.3400E,230,23.946,31.8802
4312,2012/11/6,7:21:00,24-37.3100N,119-19.1500E,232,23.945,31.8767
4313,2012/11/6,7:22:00,24-37.1800N,119-18.9700E,230,23.943,31.8893
4314,2012/11/6,7:23:00,24-37.0400N,119-18.7900E,231,23.945,31.8999
4315,2012/11/6,7:24:00,24-36.9100N,119-18.6100E,231,23.939,31.9033
4316,2012/11/6,7:25:00,24-36.7800N,119-18.4300E,230,23.935,31.9057
4317,2012/11/6,7:26:00,24-36.6500N,119-18.2400E,232,23.931,31.9034
4318,2012/11/6,7:27:00,24-36.5300N,119-18.0700E,231,23.928,31.9019
4319,2012/11/6,7:28:00,24-36.4000N,119-17.8900E,231,23.921,31.9017
4320,2012/11/6,7:29:00,24-36.2700N,119-17.7200E,231,23.918,31.9063
4321,2012/11/6,7:30:00,24-36.1500N,119-17.5400E,232,23.916,31.9142
4322,2012/11/6,7:31:00,24-36.0200N,119-17.3600E,232,23.911,31.9235
4323,2012/11/6,7:32:00,24-35.8900N,119-17.1700E,233,23.916,31.9342
4324,2012/11/6,7:33:00,24-35.7600N,119-16.9900E,233,23.926,31.9415
4325,2012/11/6,7:34:00,24-35.6400N,119-16.8100E,232,23.935,31.9497
4326,2012/11/6,7:35:00,24-35.5100N,119-16.6300E,232,23.943,31.9657
4327,2012/11/6,7:36:00,24-35.3900N,119-16.4600E,232,23.945,31.9824
4328,2012/11/6,7:37:00,24-35.2700N,119-16.2800E,234,23.941,31.9906
4329,2012/11/6,7:38:00,24-35.1500N,119-16.1000E,236,23.936,31.9954
4330,2012/11/6,7:39:00,24-35.0500N,119-15.9100E,240,23.933,31.9972
4331,2012/11/6,7:40:00,24-34.9500N,119-15.7300E,238,23.941,31.9989
4332,2012/11/6,7:41:00,24-34.8500N,119-15.5300E,240,23.944,32.0033
4333,2012/11/6,7:42:00,24-34.7400N,119-15.3300E,240,23.945,32.0076
4334,2012/11/6,7:43:00,24-34.6400N,119-15.1400E,239,23.943,32.0078
4335,2012/11/6,7:44:00,24-34.5300N,119-14.9400E,240,23.943,32.0074
4336,2012/11/6,7:45:00,24-34.4200N,119-14.7500E,236,23.945,32.0074
4337,2012/11/6,7:46:00,24-34.3000N,119-14.5700E,233,23.948,32.0092
4338,2012/11/6,7:47:00,24-34.1800N,119-14.3900E,234,23.949,32.0121
4339,2012/11/6,7:48:00,24-34.0600N,119-14.2000E,234,23.949,32.0177
4340,2012/11/6,7:49:00,24-33.9400N,119-14.0100E,235,23.95,32.0233
4341,2012/11/6,7:50:00,24-33.8300N,119-13.8300E,235,23.95,32.0284
4342,2012/11/6,7:51:00,24-33.7100N,119-13.6500E,235,23.95,32.0339
4343,2012/11/6,7:52:00,24-33.6000N,119-13.4700E,233,23.948,32.0383
4344,2012/11/6,7:53:00,24-33.4800N,119-13.2900E,234,23.946,32.0442
4345,2012/11/6,7:54:00,24-33.3600N,119-13.1000E,235,23.948,32.0495
4346,2012/11/6,7:55:00,24-33.2400N,119-12.9100E,235,23.949,32.0527
4347,2012/11/6,7:56:00,24-33.1200N,119-12.7200E,234,23.952,32.0569
4348,2012/11/6,7:57:00,24-33.0000N,119-12.5300E,235,23.951,32.0617
4349,2012/11/6,7:58:00,24-32.8700N,119-12.3400E,234,23.956,32.0708
4350,2012/11/6,7:59:00,24-32.7500N,119-12.1500E,234,23.963,32.0818
4351,2012/11/6,8:00:00,24-32.6200N,119-11.9700E,235,23.973,32.0954
4352,2012/11/6,8:01:00,24-32.5000N,119-11.7800E,231,23.983,32.1133
4353,2012/11/6,8:02:00,24-32.3600N,119-11.6000E,230,23.99,32.1387
4354,2012/11/6,8:03:00,24-32.2300N,119-11.4200E,230,23.995,32.1637
4355,2012/11/6,8:04:00,24-32.1000N,119-11.2500E,231,24,32.1795
4356,2012/11/6,8:05:00,24-31.9700N,119-11.0700E,230,24,32.1885
4357,2012/11/6,8:06:00,24-31.8400N,119-10.8900E,232,23.997,32.1957
4358,2012/11/6,8:07:00,24-31.7100N,119-10.7200E,230,24.001,32.1994
4359,2012/11/6,8:08:00,24-31.5800N,119-10.5400E,230,24.009,32.194
4360,2012/11/6,8:09:00,24-31.4600N,119-10.3700E,233,24.013,32.2005
4361,2012/11/6,8:10:00,24-31.3300N,119-10.2000E,229,24.014,32.2118
4362,2012/11/6,8:11:00,24-31.2000N,119-10.0300E,230,24.013,32.2209
4363,2012/11/6,8:12:00,24-31.0800N,119-09.8700E,229,24.015,32.2249
4364,2012/11/6,8:13:00,24-30.9500N,119-09.7000E,230,24.018,32.2263
4365,2012/11/6,8:14:00,24-30.8200N,119-09.5200E,231,24.022,32.2284
4366,2012/11/6,8:15:00,24-30.6900N,119-09.3500E,231,24.021,32.2309
4367,2012/11/6,8:16:00,24-30.5600N,119-09.1800E,232,24.022,32.235
4368,2012/11/6,8:17:00,24-30.4300N,119-09.0000E,230,24.025,32.2356
4369,2012/11/6,8:18:00,24-30.3000N,119-08.8300E,230,24.03,32.237
4370,2012/11/6,8:19:00,24-30.1700N,119-08.6500E,230,24.034,32.2399
4371,2012/11/6,8:20:00,24-30.0400N,119-08.4800E,231,24.033,32.2465
4372,2012/11/6,8:21:00,24-29.9100N,119-08.3100E,230,24.031,32.2553
4373,2012/11/6,8:22:00,24-29.7800N,119-08.1400E,229,24.031,32.2582
4374,2012/11/6,8:23:00,24-29.6500N,119-07.9600E,229,24.033,32.2533
4375,2012/11/6,8:24:00,24-29.5200N,119-07.7900E,230,24.035,32.2504
4376,2012/11/6,8:25:00,24-29.3900N,119-07.6100E,230,24.036,32.2521
4377,2012/11/6,8:26:00,24-29.2600N,119-07.4400E,229,24.039,32.2561
4378,2012/11/6,8:27:00,24-29.1300N,119-07.2700E,230,24.041,32.2591
4379,2012/11/6,8:28:00,24-29.0100N,119-07.1000E,230,24.043,32.262
4380,2012/11/6,8:29:00,24-28.8800N,119-06.9300E,229,24.043,32.2638
4381,2012/11/6,8:30:00,24-28.7500N,119-06.7500E,233,24.044,32.2654
4382,2012/11/6,8:31:00,24-28.6200N,119-06.5800E,229,24.042,32.2667
4383,2012/11/6,8:32:00,24-28.4900N,119-06.4100E,230,24.04,32.2669
4384,2012/11/6,8:33:00,24-28.3600N,119-06.2300E,230,24.04,32.262
4385,2012/11/6,8:34:00,24-28.2400N,119-06.0600E,232,24.038,32.2551
4386,2012/11/6,8:35:00,24-28.1100N,119-05.8800E,230,24.039,32.2525
4387,2012/11/6,8:36:00,24-27.9900N,119-05.7100E,230,24.042,32.2526
4388,2012/11/6,8:37:00,24-27.8500N,119-05.5300E,228,24.045,32.2528
4389,2012/11/6,8:38:00,24-27.7200N,119-05.3700E,227,24.049,32.2565
4390,2012/11/6,8:39:00,24-27.5800N,119-05.2000E,228,24.052,32.2622
4391,2012/11/6,8:40:00,24-27.4500N,119-05.0400E,227,24.058,32.2686
4392,2012/11/6,8:41:00,24-27.3100N,119-04.8700E,227,24.061,32.2747
4393,2012/11/6,8:42:00,24-27.1700N,119-04.7000E,226,24.064,32.2844
4394,2012/11/6,8:43:00,24-27.0300N,119-04.5400E,226,24.068,32.2954
4395,2012/11/6,8:44:00,24-26.8900N,119-04.3700E,227,24.073,32.3035
4396,2012/11/6,8:45:00,24-26.7500N,119-04.2000E,228,24.077,32.3096
4397,2012/11/6,8:46:00,24-26.6100N,119-04.0300E,228,24.08,32.3152
4398,2012/11/6,8:47:00,24-26.4700N,119-03.8600E,228,24.083,32.3232
4399,2012/11/6,8:48:00,24-26.3400N,119-03.6900E,228,24.083,32.3325
4400,2012/11/6,8:49:00,24-26.2000N,119-03.5300E,228,24.088,32.3405
4401,2012/11/6,8:50:00,24-26.0600N,119-03.3700E,228,24.093,32.3428
4402,2012/11/6,8:51:00,24-25.9300N,119-03.2000E,228,24.099,32.3479
4403,2012/11/6,8:52:00,24-25.8000N,119-03.0400E,227,24.109,32.3592
4404,2012/11/6,8:53:00,24-25.6600N,119-02.8800E,229,24.115,32.3748
4405,2012/11/6,8:54:00,24-25.5300N,119-02.7100E,231,24.12,32.3883
4406,2012/11/6,8:55:00,24-25.3900N,119-02.5000E,231,24.123,32.4017
4407,2012/11/6,8:56:00,24-25.2700N,119-02.3500E,231,24.13,32.4148
4408,2012/11/6,8:57:00,24-25.1500N,119-02.1800E,231,24.133,32.4241
4409,2012/11/6,8:58:00,24-25.0100N,119-02.0000E,231,24.133,32.4336
4410,2012/11/6,8:59:00,24-24.8800N,119-01.8200E,232,24.135,32.4414
4411,2012/11/6,9:00:00,24-24.7600N,119-01.6500E,230,24.135,32.4432
4412,2012/11/6,9:01:00,24-24.6300N,119-01.4700E,230,24.143,32.4477
4413,2012/11/6,9:02:00,24-24.4900N,119-01.2900E,230,24.149,32.4501
4414,2012/11/6,9:03:00,24-24.3600N,119-01.1000E,231,24.145,32.4606
4415,2012/11/6,9:04:00,24-24.2300N,119-00.9200E,233,24.138,32.468
4416,2012/11/6,9:05:00,24-24.1100N,119-00.7400E,231,24.131,32.4649
4417,2012/11/6,9:06:00,24-23.9700N,119-00.5600E,230,24.135,32.4546
4418,2012/11/6,9:07:00,24-23.8400N,119-00.3900E,229,24.159,32.4476
4419,2012/11/6,9:08:00,24-23.7000N,119-00.2100E,229,24.175,32.4513
4420,2012/11/6,9:09:00,24-23.5600N,119-00.0300E,229,24.183,32.4889
4421,2012/11/6,9:10:00,24-23.4200N,118-59.8600E,228,24.191,32.526
4422,2012/11/6,9:11:00,24-23.2900N,118-59.6800E,229,24.199,32.5442
4423,2012/11/6,9:12:00,24-23.1500N,118-59.5000E,229,24.206,32.5572
4424,2012/11/6,9:13:00,24-23.0100N,118-59.3300E,229,24.208,32.5704
4425,2012/11/6,9:14:00,24-22.8700N,118-59.1400E,228,24.212,32.5816
4426,2012/11/6,9:15:00,24-22.7300N,118-58.9500E,229,24.217,32.5893
4427,2012/11/6,9:16:00,24-22.5900N,118-58.7700E,230,24.219,32.5962
4428,2012/11/6,9:17:00,24-22.4500N,118-58.5800E,232,24.223,32.6045
4429,2012/11/6,9:18:00,24-22.3200N,118-58.3900E,232,24.228,32.6125
4430,2012/11/6,9:19:00,24-22.1800N,118-58.1900E,232,24.232,32.6169
4431,2012/11/6,9:20:00,24-22.0500N,118-58.0000E,232,24.233,32.6226
4432,2012/11/6,9:21:00,24-21.9200N,118-57.8100E,231,24.236,32.63
4433,2012/11/6,9:22:00,24-21.7800N,118-57.6200E,232,24.239,32.6349
4434,2012/11/6,9:23:00,24-21.6600N,118-57.4300E,233,24.246,32.6412
4435,2012/11/6,9:24:00,24-21.5300N,118-57.2300E,233,24.253,32.6489
4436,2012/11/6,9:25:00,24-21.4000N,118-57.0500E,232,24.252,32.6549
4437,2012/11/6,9:26:00,24-21.2700N,118-56.8600E,231,24.255,32.6637
4438,2012/11/6,9:27:00,24-21.1300N,118-56.6700E,229,24.256,32.667
4439,2012/11/6,9:28:00,24-20.9800N,118-56.4900E,228,24.261,32.6733
4440,2012/11/6,9:29:00,24-20.8300N,118-56.2900E,229,24.266,32.6792
4441,2012/11/6,9:30:00,24-20.7000N,118-56.1200E,228,24.268,32.6852